CYGNUS NG-10 (43704 NORAD) Tracking and Keplerian Element Data

This shows tracking and keplerian element data for the satellite.

Feedback or suggestion? Click here.




ElementValue
Catalog43704
NameCYGNUS NG-10
Epoch Orbit936
Epoch Day16.54545263
Epoch Year2019
RAAN35.4668
Inclination51.642
Eccentricity0.0002425
Argument of Perigee298.6974
Mean Anonmoly198.7028
Mean Motion15.53764298
Decay Rate5.77E-06
L11 43704U 18092A 19016.54545263 .00000577 00000-0 16123-4 0 9995
L22 43704 51.6420 35.4668 0002425 298.6974 198.7028 15.53764298 9361

Live tracking and technical data element details for CYGNUS NG-10 (NORAD 43704). CYGNUS NG-10 can be tracked NOW for your location showing map with azimuth and elevation plus other details from your city location.

Track the satellite on the map from your city or location and see movement details for azimuth, elevation, latitude, longitude, range, height, and movement on the map or in text.







IsCatalogInMostPopularTable: catalog: 43704, numindb: 48
Update: records affected: 1



GetName: 43704 CYGNUS NG-10

Hit Count: updated at: Fri, 18 Jan 2019 21:37:29 GMT